Wind_Speed
7 7 8 8 8 7 8 9 8 8 8 8 8 8 9 9 10 10 10 11 11 11 12 13 13 14 15 16 16 17 16 16 16 17 18 18 18 18 19 20 20 20 20
7 7 8 8 8 8 8 8 8 8 9 9 8 8 9 10 10 11 11 11 11 12 12 13 13 14 14 15 15 15 15 15 16 16 16 17 17 18 18 19 20 21 21
9 8 8 8 8 9 9 9 9 9 9 10 9 9 10 10 11 11 11 11 11 12 12 12 13 14 15 15 15 15 15 15 15 16 17 18 18 18 18 19 20 21 22
10 10 10 9 10 10 10 10 10 10 11 11 10 10 11 11 11 10 10 10 11 11 12 12 13 14 15 15 16 16 16 16 16 17 18 18 19 19 19 20 21 21 22
11 11 11 11 11 11 11 11 12 12 12 12 12 12 12 11 11 11 11 11 11 11 12 12 13 14 15 15 16 16 17 17 17 17 18 18 19 19 20 21 21 21 21
12 12 13 13 12 12 12 12 13 13 13 13 14 13 13 13 13 13 13 13 14 13 14 14 15 15 15 16 17 17 17 17 18 18 18 19 20 21 21 22 22 22 22
13 13 14 13 13 13 14 14 14 14 14 14 14 14 14 14 15 15 15 16 16 16 16 17 17 18 18 18 18 18 18 18 19 20 20 20 21 21 22 23 23 22 22
13 13 13 13 14 14 14 14 14 14 14 14 14 14 14 15 16 16 17 17 18 18 18 19 19 19 19 20 20 20 20 20 21 21 22 22 23 23 23 23 24 23 23
14 14 14 15 15 15 15 15 15 15 15 16 15 15 15 16 16 17 17 17 17 17 18 19 20 20 20 21 21 21 21 22 22 22 22 23 23 23 24 24 23 23 22
15 16 16 16 16 16 16 16 16 16 16 16 16 16 16 16 17 17 18 18 18 18 19 19 19 20 21 21 21 21 21 21 21 21 21 21 22 22 22 23 23 23 23
16 17 17 17 17 18 17 17 17 17 17 17 17 17 17 17 17 18 18 18 18 18 19 19 19 20 20 21 21 21 20 20 20 20 21 21 21 22 22 23 23 24 24
17 17 17 17 17 17 17 18 18 18 18 18 18 18 18 18 18 18 19 19 19 18 19 19 20 20 20 19 19 19 20 21 21 21 21 21 21 22 23 24 24 24 25
19 18 18 18 18 18 19 19 18 19 19 19 19 19 19 20 20 19 19 19 20 20 20 20 20 20 19 19 20 20 20 21 22 22 22 22 22 22 23 24 24 24 24
20 20 20 20 20 21 21 20 20 20 21 21 20 20 20 21 20 20 20 20 20 21 21 21 21 21 21 21 21 21 21 22 22 23 22 23 23 23 23 23 23 23 24
21 21 21 21 21 21 20 21 21 22 22 22 21 21 21 21 21 21 21 21 21 21 21 21 21 21 21 21 22 22 22 22 22 22 23 23 24 24 24 23 23 24 25
21 21 21 21 21 21 21 21 22 22 22 22 22 22 22 22 22 22 22 22 22 22 22 22 22 22 22 22 22 23 23 23 23 23 23 23 24 24 23 24 25 25 26
22 21 21 21 21 21 21 21 21 21 21 21 22 22 23 23 23 22 22 22 22 22 22 23 23 23 22 22 22 22 22 22 22 22 23 23 24 24 24 25 26 26 26
22 22 21 21 21 21 21 21 21 21 21 21 22 22 23 23 22 22 22 22 22 22 22 22 22 22 22 22 21 21 21 21 22 23 24 24 24 25 25 26 26 25 25
22 22 21 21 21 20 20 20 20 21 21 21 22 22 22 22 22 22 22 22 22 22 22 22 22 22 21 21 21 21 21 22 23 24 24 25 24 25 25 25 25 25 25
22 22 22 22 21 21 21 20 21 21 21 21 22 22 21 21 21 21 22 22 22 22 22 21 21 21 20 20 21 21 22 23 23 24 24 24 25 25 25 25 25 26 26
21 21 21 20 20 20 20 20 21 21 21 21 21 21 21 21 21 21 21 21 21 21 20 20 20 20 20 20 21 22 23 23 24 24 24 24 24 25 24 24 25 25 26
20 19 19 19 19 19 19 19 19 19 20 20 20 20 20 20 20 21 21 21 21 21 21 21 20 20 21 21 22 22 23 23 24 24 24 24 24 24 25 25 25 25 24
19 18 18 18 18 18 17 17 18 18 18 19 19 19 19 20 20 20 21 20 21 21 20 20 20 20 20 22 22 23 23 23 24 24 24 24 24 25 25 25 25 25 25
17 17 17 17 17 17 17 17 17 17 17 17 18 18 18 18 19 20 20 20 20 20 20 20 19 20 20 21 22 22 22 23 23 23 23 24 24 25 25 25 25 25 25
17 17 17 17 17 17 17 17 17 16 16 17 17 17 18 18 18 18 18 19 20 20 21 20 20 19 20 21 22 22 23 23 23 23 23 24 24 24 24 24 24 25 25
17 17 17 17 16 16 16 16 15 16 16 16 16 16 16 17 17 18 18 19 19 19 19 19 19 20 20 21 23 23 24 24 24 24 25 25 25 24 24 24 24 24 24
Wind_Direction
270 270 266 262 253 260 271 275 278 279 283 284 282 280 278 276 277 278 279 277 277 275 273 274 271 269 267 270 273 273 273 274 273 270 267 269 268 268 269 267 266 268 269
268 273 272 266 260 264 272 276 281 284 286 286 284 284 286 284 282 283 286 282 279 279 277 275 274 274 276 277 279 278 277 277 277 275 270 269 270 270 269 268 269 269 270
264 268 272 273 273 274 276 274 279 282 284 287 286 287 287 287 287 288 289 286 284 283 280 276 275 277 278 279 279 278 279 280 279 277 274 272 271 273 272 271 271 271 270
267 270 270 271 274 275 279 277 277 281 283 286 286 286 287 288 287 288 288 287 285 284 283 278 277 276 278 278 276 276 279 280 279 278 277 275 273 274 274 273 274 274 272
269 271 270 270 271 273 278 279 278 280 281 284 285 284 283 283 284 284 285 286 286 284 282 280 277 276 276 277 278 279 280 281 280 279 277 275 275 275 276 276 277 277 275
269 270 268 266 266 271 274 277 278 280 279 281 281 281 280 279 280 282 283 283 283 281 280 279 277 275 275 275 277 279 281 281 281 279 279 279 278 278 277 279 281 280 278
266 266 269 265 265 269 272 276 277 278 277 277 275 276 278 279 279 280 280 281 282 279 278 278 279 277 277 278 278 279 281 282 282 281 281 281 280 280 280 280 281 281 278
269 266 269 269 267 271 272 274 274 276 276 277 276 277 280 281 282 282 281 282 282 281 279 279 280 279 279 279 280 281 281 282 282 281 281 281 280 279 281 282 281 280 279
269 266 269 272 274 278 274 273 272 275 276 277 279 280 282 284 285 285 284 284 282 282 283 284 283 282 281 281 281 281 281 281 282 283 283 282 281 280 281 281 282 281 279
265 265 269 273 274 276 275 275 273 274 277 277 277 279 283 285 286 287 285 283 283 284 286 287 287 287 285 283 282 282 283 283 283 283 285 285 284 283 282 282 283 283 281
270 269 272 275 276 274 275 276 274 276 278 276 275 278 280 282 284 286 287 286 286 287 287 288 287 289 289 287 283 282 283 282 283 284 284 285 286 286 284 284 283 282 282
272 273 275 274 273 274 273 275 275 275 277 277 276 277 279 281 283 284 286 288 288 289 290 289 288 288 288 286 284 284 284 282 280 282 282 284 286 286 286 286 285 284 284
271 272 275 275 274 271 271 274 276 275 275 277 275 275 278 280 282 284 284 286 288 289 290 291 291 291 289 287 286 285 285 285 282 281 282 282 283 285 286 286 286 285 286
271 273 275 272 270 270 271 274 277 278 277 277 278 278 279 280 281 282 284 285 287 289 289 291 290 289 288 287 287 286 287 287 285 283 283 283 284 286 287 286 285 286 286
272 273 273 273 273 273 274 276 278 279 278 277 277 276 277 279 280 281 282 284 286 287 289 290 291 291 291 289 288 286 286 287 287 285 285 285 285 286 287 287 287 289 289
272 272 272 273 272 273 275 277 279 279 277 275 275 275 277 278 278 279 280 281 283 285 286 289 290 290 289 288 287 286 286 286 287 288 286 285 285 287 287 287 288 289 290
270 271 271 271 271 273 274 277 278 278 278 277 277 276 277 278 278 279 279 281 282 283 284 286 288 288 288 288 286 286 285 285 287 287 288 287 286 287 287 287 287 288 289
268 270 271 271 270 272 274 274 275 277 278 277 277 278 278 278 277 278 278 280 282 283 284 285 286 288 288 287 287 287 287 286 287 288 288 288 288 288 289 290 289 289 289
267 269 270 270 269 271 272 272 273 275 277 277 276 277 278 278 277 277 279 280 281 283 285 285 285 286 287 287 286 287 288 288 289 290 290 290 289 290 291 291 290 289 289
267 269 269 269 268 269 270 271 273 275 277 277 276 277 278 279 279 279 281 282 282 282 284 284 285 286 286 285 286 287 289 290 291 291 291 290 290 290 290 289 290 291 290
267 268 268 268 268 268 270 272 273 275 276 276 276 277 278 280 280 281 282 283 284 284 284 284 285 286 286 286 287 290 292 293 292 292 292 291 291 292 291 291 292 292 291
266 266 266 267 268 269 270 272 274 275 276 276 277 278 279 281 282 282 282 282 283 284 284 283 283 284 286 287 288 290 292 292 292 292 292 291 290 291 291 292 292 292 292
263 263 263 266 268 269 271 273 275 277 278 279 278 280 281 282 283 285 284 282 282 283 282 282 283 285 287 289 289 290 292 292 292 292 291 290 290 290 290 290 292 293 293
260 260 260 263 267 269 272 274 276 277 277 279 281 282 284 285 286 286 284 282 282 282 282 283 284 286 288 291 292 293 293 293 294 294 293 291 292 292 292 291 292 293 294
256 258 258 262 266 268 271 273 275 275 277 278 280 281 283 286 288 288 286 284 285 285 284 284 284 285 286 290 294 296 296 295 295 295 296 296 295 296 296 295 294 294 295
259 259 260 263 266 268 269 270 274 277 279 281 281 280 282 287 290 290 290 289 289 288 286 285 284 286 288 291 294 296 296 295 294 295 295 297 296 296 296 296 296 295 295
Height
5811 5811 5811 5810 5810 5810 5810 5809 5809 5808 5808 5807 5806 5805 5805 5804 5804 5803 5802 5802 5801 5801 5800 5800 5800 5800 5799 5799 5799 5798 5797 5797 5796 5796 5795 5794 5793 5793 5793 5792 5791 5791 5791
5809 5809 5808 5808 5808 5808 5807 5807 5806 5806 5805 5804 5804 5803 5802 5802 5801 5800 5799 5798 5798 5797 5797 5797 5796 5796 5795 5795 5794 5793 5793 5792 5792 5791 5790 5789 5789 5788 5787 5787 5786 5786 5785
5806 5805 5805 5805 5805 5804 5804 5804 5804 5803 5802 5802 5801 5800 5799 5799 5798 5797 5796 5795 5795 5794 5793 5793 5792 5792 5791 5791 5790 5789 5788 5788 5787 5786 5785 5784 5783 5783 5782 5781 5780 5780 5779
5803 5802 5802 5802 5802 5801 5801 5801 5800 5800 5799 5799 5798 5797 5796 5796 5795 5794 5793 5792 5791 5790 5789 5789 5788 5788 5787 5786 5785 5784 5784 5783 5782 5781 5780 5779 5778 5777 5776 5775 5775 5773 5772
5799 5799 5799 5799 5798 5798 5798 5797 5797 5796 5796 5795 5795 5794 5793 5793 5792 5791 5790 5789 5788 5787 5786 5785 5784 5783 5782 5781 5780 5779 5778 5777 5776 5776 5775 5774 5773 5771 5770 5769 5768 5767 5765
5796 5795 5795 5795 5795 5795 5794 5794 5793 5793 5792 5791 5791 5790 5789 5789 5788 5788 5787 5786 5784 5783 5782 5781 5780 5779 5778 5777 5775 5774 5773 5772 5771 5770 5769 5768 5767 5765 5764 5763 5762 5761 5759
5792 5792 5791 5791 5791 5790 5790 5789 5789 5788 5788 5787 5786 5786 5785 5784 5784 5783 5782 5781 5780 5778 5777 5776 5775 5774 5772 5771 5770 5769 5768 5767 5766 5765 5763 5762 5761 5759 5758 5756 5755 5754 5753
5787 5787 5787 5787 5786 5786 5786 5785 5784 5784 5783 5783 5782 5781 5781 5780 5779 5778 5777 5775 5774 5773 5771 5770 5769 5768 5766 5765 5764 5763 5762 5760 5759 5758 5757 5755 5754 5752 5751 5749 5748 5747 5746
5782 5783 5782 5782 5782 5782 5781 5781 5780 5779 5779 5778 5777 5776 5776 5775 5774 5772 5771 5770 5769 5767 5766 5764 5763 5762 5760 5759 5758 5756 5755 5754 5752 5751 5750 5748 5747 5745 5744 5742 5741 5739 5739
5777 5778 5778 5778 5778 5777 5776 5776 5775 5774 5773 5773 5772 5772 5771 5770 5769 5767 5766 5765 5763 5762 5760 5758 5757 5755 5754 5752 5751 5750 5748 5747 5746 5745 5743 5741 5740 5738 5737 5735 5734 5732 5731
5772 5773 5773 5772 5772 5772 5772 5771 5770 5769 5768 5768 5767 5767 5766 5765 5763 5762 5761 5760 5758 5756 5754 5753 5751 5749 5747 5746 5744 5743 5742 5741 5740 5738 5737 5735 5733 5732 5730 5728 5727 5725 5724
5767 5767 5767 5767 5766 5766 5766 5765 5764 5764 5763 5762 5762 5761 5760 5759 5758 5756 5755 5754 5752 5751 5749 5747 5745 5743 5741 5740 5738 5737 5735 5734 5733 5732 5730 5729 5727 5725 5723 5721 5720 5718 5716
5762 5762 5761 5761 5760 5760 5760 5759 5758 5757 5757 5756 5755 5755 5754 5753 5751 5750 5749 5748 5746 5744 5743 5741 5738 5736 5735 5733 5731 5730 5729 5728 5726 5725 5723 5722 5720 5718 5716 5714 5713 5711 5709
5755 5755 5755 5753 5753 5753 5753 5753 5752 5751 5750 5749 5748 5747 5747 5746 5745 5743 5742 5741 5740 5738 5736 5734 5732 5730 5728 5727 5725 5723 5722 5721 5719 5718 5716 5715 5713 5711 5709 5707 5705 5704 5702
5748 5748 5747 5746 5746 5746 5746 5746 5745 5744 5743 5742 5741 5740 5740 5739 5738 5737 5736 5734 5733 5731 5729 5728 5726 5724 5722 5720 5718 5717 5715 5714 5712 5711 5709 5708 5706 5704 5702 5700 5698 5696 5694
5741 5741 5741 5740 5740 5739 5739 5739 5737 5737 5736 5735 5734 5733 5732 5732 5731 5730 5729 5727 5726 5724 5723 5721 5719 5717 5715 5713 5711 5710 5708 5706 5705 5703 5702 5700 5698 5696 5694 5692 5690 5688 5686
5734 5734 5734 5734 5733 5733 5732 5732 5731 5730 5729 5728 5727 5726 5725 5724 5723 5722 5721 5720 5718 5717 5716 5714 5712 5710 5708 5706 5704 5703 5701 5700 5698 5696 5695 5693 5691 5689 5687 5684 5682 5680 5678
5726 5726 5726 5726 5726 5726 5725 5725 5724 5723 5722 5721 5720 5719 5718 5717 5716 5715 5713 5712 5711 5710 5709 5707 5705 5703 5701 5699 5697 5696 5694 5693 5691 5689 5687 5685 5683 5681 5679 5676 5674 5672 5669
5719 5719 5719 5719 5718 5718 5718 5717 5717 5716 5715 5714 5713 5711 5710 5709 5708 5707 5706 5705 5704 5703 5701 5699 5697 5696 5694 5692 5691 5689 5688 5686 5684 5681 5679 5677 5675 5673 5670 5668 5665 5663 5661
5711 5711 5711 5711 5711 5711 5710 5710 5709 5708 5708 5706 5705 5704 5703 5702 5701 5700 5699 5697 5696 5695 5694 5692 5690 5688 5687 5685 5684 5682 5680 5678 5676 5674 5672 5669 5667 5665 5663 5660 5657 5655 5653
5703 5704 5703 5703 5703 5703 5703 5703 5702 5701 5700 5699 5698 5698 5696 5695 5694 5693 5691 5690 5689 5688 5686 5684 5683 5681 5680 5678 5677 5675 5673 5670 5668 5666 5664 5662 5660 5657 5655 5652 5650 5647 5645
5696 5696 5696 5696 5696 5696 5696 5696 5695 5694 5693 5692 5692 5691 5690 5688 5687 5685 5684 5683 5682 5680 5679 5677 5676 5674 5673 5671 5669 5667 5665 5663 5661 5659 5656 5654 5652 5650 5647 5645 5642 5640 5637
5689 5690 5690 5690 5690 5690 5690 5689 5689 5688 5687 5686 5685 5684 5683 5681 5680 5678 5677 5675 5674 5673 5671 5670 5669 5667 5666 5664 5662 5660 5658 5656 5653 5651 5649 5646 5644 5642 5640 5637 5635 5632 5630
5683 5683 5683 5684 5684 5684 5684 5683 5682 5681 5681 5680 5679 5677 5676 5675 5673 5672 5670 5668 5667 5666 5664 5663 5661 5660 5659 5657 5655 5652 5650 5648 5646 5643 5641 5639 5636 5634 5632 5629 5627 5624 5622
5677 5677 5678 5678 5678 5678 5678 5677 5676 5676 5675 5674 5673 5672 5670 5669 5667 5665 5663 5661 5660 5659 5657 5656 5654 5653 5651 5650 5648 5645 5643 5640 5638 5636 5633 5631 5629 5626 5624 5621 5619 5617 5614
5671 5671 5672 5672 5672 5672 5672 5671 5671 5670 5669 5668 5667 5666 5664 5663 5661 5659 5657 5655 5654 5652 5651 5649 5648 5646 5645 5643 5640 5638 5635 5633 5631 5628 5626 5623 5621 5618 5616 5614 5611 5609 5607